OpenBCM V1.08-5-g2f4a (Linux)

Packet Radio Mailbox

IZ3LSV

[San Dona' di P. JN]

 Login: GUEST





  
I0OJJ  > KEPS     29.09.25 01:28l 313 Lines 14851 Bytes #101 (0) @ AMSAT
BID : ORB25272.1
Read: GUEST
Subj: 2Line Orbital Elements 25272.AMSAT
Path: IZ3LSV<IK6IHL<IK7NXU<HB9ON<DK0WUE<ZL2BAU<VK2RZ<IR0AAB<I0OJJ
Sent: 250929/0025z @:I0OJJ.ITA.EU [Rome] obcm1.08-11-2-gbfe9
From: I0OJJ @ I0OJJ.ITA.EU (Gustavo)
To:   KEPS @ AMSAT
X-Info: This message was generated automatically


QST de W1STR

AMSAT Orbital Elements for Amateur Satellites in TLE Format
From Orbital Analysis Office
New England Sci-Tech STEM Education Center
Natick MA September 29, 2025
To all radio amateurs


These element sets describe the orbits of various satellites 
in use by the amateur radio community. For details see:
www.amsat.org/keplerian-elements-formats/

A daily update of element sets is available at:
www.amsat.org/tle/daily-bulletin.txt
or without bulletin text:
www.amsat.org/tle/dailytle.txt


AO-07
1 07530U 74089B   25271.00828786 -.00000042  00000-0  27007-4 0  9996
2 07530 101.9986 276.4649 0011916 271.9630 156.2308 12.53691878327664
UO-11
1 14781U 84021B   25271.17364962  .00003587  00000-0  37996-3 0  9991
2 14781  97.7685 235.4479 0007120 343.0727  17.0252 14.89734861218105
AO-27
1 22825U 93061C   25271.12676334  .00000259  00000-0  11594-3 0  9996
2 22825  98.7251 333.1743 0009063 143.6305 216.5495 14.30834734669524
FO-29
1 24278U 96046B   25271.21260545  .00000045  00000-0  78995-4 0  9991
2 24278  98.5560 150.4582 0350782  55.9964 307.3980 13.53254937437732
NOAA-15
1 25338U 98030A   25271.10540095  .00000311  00000-0  14544-3 0  9998
2 25338  98.5307 293.5544 0010964  40.7560 319.4439 14.27023717423915
GO-32
1 25397U 98043D   25270.98122074  .00000215  00000-0  11299-3 0  9992
2 25397  98.9836 252.4696 0000385 212.4300 147.6855 14.24343742414002
ISS
1 25544U 98067A   25271.14609814  .00019357  00000-0  35289-3 0  9995
2 25544  51.6325 156.7474 0001396 176.1819 183.9180 15.49463105531131
NO-44
1 26931U 01043C   25271.22631253  .00000502  00000-0  21874-3 0  9992
2 26931  67.0510 201.7479 0007112 274.5313  85.4976 14.31789475252948
SO-50
1 27607U 02058C   25271.23729443  .00004230  00000-0  52957-3 0  9998
2 27607  64.5535 218.8754 0067263 310.9077  48.6215 14.81967972225625
CO-55
1 27844U 03031E   25270.99236745  .00000672  00000-0  31132-3 0  9991
2 27844  98.6788 277.8604 0008779 222.2231 137.8272 14.24081838154359
CO-57
1 27848U 03031J   25270.50069703  .00000589  00000-0  27880-3 0  9992
2 27848  98.6818 277.2968 0008459 243.2971 116.7342 14.23403871154003
RS-22
1 27939U 03042A   25271.17393059  .00002730  00000-0  43651-3 0  9997
2 27939  98.3378  83.3846 0011851  24.9574  95.0370 14.72635649176970
CO-58
1 28895U 05043F   25269.95156558  .00003539  00000-0  57909-3 0  9995
2 28895  98.2659  55.7903 0013700 323.8374  36.1905 14.71403753 63023
CO-65
1 32785U 08021C   25271.24386519  .00010948  00000-0  76181-3 0  9999
2 32785  97.7992 243.3802 0009177 183.5156 176.6007 15.05626079945720
CO-66
1 32791U 08021J   25270.90938928  .00026049  00000-0  11539-2 0  9999
2 32791  97.7388 253.6769 0005621 123.7934 236.3837 15.21603957947255
RS-30
1 32953U 08025A   25271.22153547  .00000037  00000-0  19740-3 0  9997
2 32953  82.5056 158.3913 0019057 160.9723 199.2073 12.43168545787147
NOAA-19
1 33591U 09005A   25271.06252230  .00000189  00000-0  12469-3 0  9995
2 33591  98.9865 336.3331 0014546  54.6721 305.5808 14.13412144857458
SRMSAT
1 37841U 11058D   25271.10520257  .00000595  00000-0  17929-3 0  9997
2 37841  19.9711 205.6970 0011784 199.8704 275.6633 14.11470827720748
ZACUBE-1
1 39417U 13066B   25270.86700325  .00010570  00000-0  88800-3 0  9997
2 39417  97.7912 227.4277 0044395  44.7753 315.7039 14.97720238641414
Delfi-N3xt
1 39428U 13066N   25271.24057924  .00018547  00000-0  18092-2 0  9999
2 39428  97.8281 187.7136 0082425 357.2895   2.7864 14.89926047635546
GOMX-1
1 39430U 13066Q   25271.26032189  .00004086  00000-0  63271-3 0  9993
2 39430  97.6700 123.0979 0130916 197.4699 162.1982 14.68078327631461
LO-74
1 39440U 13066AA  25271.12465665  .00007402  00000-0  73157-3 0  9997
2 39440  97.8572 215.0174 0061116 173.3516 186.8527 14.90805408637902
AO-73
1 39444U 13066AE  25271.19438552  .00018222  00000-0  12981-2 0  9992
2 39444  97.7929 233.7007 0041268  15.6508 344.5983 15.03956313640201
DTUSAT-2
1 40030U 14033W   25271.16710930  .00014887  00000-0  92229-3 0  9997
2 40030  98.0676 248.5160 0010447  54.7891 305.4313 15.09837707613074
EO-80
1 40032U 14033Y   25270.91639412  .00013223  00000-0  81830-3 0  9995
2 40032  98.0561 247.7533 0008129   4.2638 355.8657 15.09924883613013
LILACSAT-2
1 40908U 15049K   25271.25822367  .00022217  00000-0  52833-3 0  9990
2 40908  97.5016 294.4459 0010546 117.7526 242.4791 15.41606211555262
IO-86
1 40931U 15052B   25151.18580175  .00001241  00000-0  78118-4 0  9996
2 40931   6.0006  24.0987 0012733 338.8432  21.1169 14.78805930523159
Horyu-4
1 41340U 16012D   25270.97399191  .00049234  00000-0  10924-2 0  9996
2 41340  30.9945 106.9091 0004579 120.9298 239.1799 15.42456227529819
Lapan A3
1 41603U 16040E   25271.27612443  .00007135  00000-0  24287-3 0  9993
2 41603  97.1428 271.6208 0009271 226.3738 133.6735 15.30666502514713
CAS-2T
1 41847U 16066G   25271.23190539  .00003509  00000-0  50543-3 0  9999
2 41847  98.4102 344.7045 0344676 203.4758 155.0373 14.43774517466986
CAS-4B
1 42759U 17034B   25271.28061348  .00454759  87108-4  13096-2 0  9994
2 42759  42.9999  12.6447 0023218 357.4088   2.6663 15.91782176460039
CAS-4A
1 42761U 17034D   25271.34263100  .00612475  16805-3  12742-2 0  9997
2 42761  43.0020   7.1793 0022733   4.3150 355.7920 15.97755142460083
TechnoSat
1 42829U 17042E   25270.89692480  .00005920  00000-0  44914-3 0  9992
2 42829  97.4004  74.4459 0016770 269.8669  90.0635 15.02467707447288
AO-91
1 43017U 17073E   25271.18468425  .00015918  00000-0  78005-3 0  9995
2 43017  97.5059 139.1882 0167952 148.8235 212.3090 15.06599502425858
S-Net D
1 43186U 18014G   25271.26032869  .00010337  00000-0  58905-3 0  9993
2 43186  97.5485 173.0348 0008208 191.5220 168.5824 15.12963097419108
S-Net B
1 43187U 18014H   25270.67196520  .00009799  00000-0  55905-3 0  9990
2 43187  97.5491 172.4303 0008921 190.3033 169.8017 15.12927438419018
S-Net A
1 43188U 18014J   25270.66508548  .00009284  00000-0  52952-3 0  9995
2 43188  97.5499 172.5880 0008769 190.4266 169.6785 15.12954741419014
S-Net C
1 43189U 18014K   25271.26989428  .00010415  00000-0  59361-3 0  9992
2 43189  97.5518 173.2199 0010536 182.5941 177.5237 15.12935143417658
Ten-Koh
1 43677U 18084G   25271.07139482  .00004788  00000-0  37889-3 0  9994
2 43677  98.0785  87.7090 0006910 244.1867 115.8644 15.01108015376811
PO-101
1 43678U 18084H   25271.29663837  .00004690  00000-0  39371-3 0  9995
2 43678  98.1072  91.7292 0008030 277.1208  82.9101 14.98841223376969
QO-100
1 43700U 18090A   25270.86471066  .00000149  00000-0  00000-0 0  9990
2 43700   0.0120 126.4909 0001421  91.5953 125.9317  1.00274158 25047
MinXSS-2
1 43758U 18099A   25271.18360479  .00037880  00000-0  13197-2 0  9998
2 43758  97.4898 337.7697 0012095 124.5424 235.6960 15.29491686373853
AO-95
1 43770U 18099N   25271.11752996  .00018722  00000-0  88718-3 0  9990
2 43770  97.4790 328.0526 0010405 179.7610 180.3631 15.19312812373329
SNUSat 2
1 43782U 18099AA  25271.14725289  .00015767  00000-0  81520-3 0  9991
2 43782  97.4473 323.9042 0012973 127.0841 233.1580 15.16274626373249
SnugLite
1 43784U 18099AC  25271.12303971  .00017470  00000-0  82044-3 0  9996
2 43784  97.4286 323.6930 0004780 121.6146 238.5556 15.19673935373411
ITASat 1
1 43786U 18099AE  25271.15018163  .00013207  00000-0  72114-3 0  9998
2 43786  97.4442 323.0764 0014122 177.7575 182.3723 15.14367447373184
EAGLET 1
1 43790U 18099AJ  25271.12261879  .00007370  00000-0  45651-3 0  9994
2 43790  97.4639 322.6108 0012347 163.0273 197.1372 15.10000437372748
ESEO
1 43792U 18099AL  25271.06530806  .00003944  00000-0  29669-3 0  9992
2 43792  97.4369 314.3042 0013291 143.2649 216.9490 15.03030931372410
JO-97
1 43803U 18099AX  25271.10365754  .00024414  00000-0  10229-2 0  9994
2 43803  97.4537 329.3031 0008502 116.1949 244.0163 15.23487961373584
Suomi 100
1 43804U 18099AY  25270.65164441  .00018051  00000-0  82430-3 0  9998
2 43804  97.4601 327.8060 0013138 122.1713 238.0798 15.20569036373419
ISAT
1 43879U 18111D   25271.27566788  .00046779  00000-0  13820-2 0  9998
2 43879  97.5866 188.3970 0009245 147.4966 212.6847 15.34762710370643
UWE-4
1 43880U 18111E   25271.18976916  .00034413  00000-0  11995-2 0  9991
2 43880  97.5809 185.9300 0011338 167.1582 192.9949 15.29504222370516
Sparrow
1 43881U 18111F   25270.76777992  .00043861  00000-0  12348-2 0  9998
2 43881  97.6036 191.2191 0005780 173.4231 186.7090 15.36317978370676
Prox-1
1 44339U 19036A   25270.64675398  .00018969  00000-0  22808-2 0  9991
2 44339  23.9965  57.6204 0006113 250.7250 109.2586 14.82348337334357
Taurus 1
1 44530U 19059C   25271.33079657  .00014977  00000-0  26566-2 0  9992
2 44530  98.6196  56.1586 0009183  54.3336 305.8721 14.67312233320174
Duchifat 3
1 44854U 19089C   25270.65558043  .00136491  00000-0  16298-2 0  9996
2 44854  36.9389   9.8677 0005984  98.4710 261.6729 15.59651018320129
TO-108
1 44881U 19093C   25271.28265780  .00002288  00000-0  26870-3 0  9998
2 44881  97.7834 344.5827 0012721 223.8650 136.1557 14.85830413312514
FloripaSat 1
1 44885U 19093G   25271.28967495  .00011828  00000-0  96079-3 0  9992
2 44885  97.8127 359.1867 0009572 198.3433 161.7447 14.99731284313339
RS-44
1 44909U 19096E   25271.17991220  .00000024  00000-0  48322-4 0  9998
2 44909  82.5236 153.8194 0218249  37.1678 324.4308 12.79743987268831
UPMSat 2
1 46276U 20061E   25271.21910569  .00558200  13932-3  11025-2 0  9996
2 46276  97.2278 350.9340 0003996 242.9612 117.1259 16.00020554282921
SALSAT
1 46495U 20068K   25270.89578704  .00014141  00000-0  57848-3 0  9994
2 46495  97.8730 254.2091 0012587 132.0870 228.1439 15.24386517275321
